This demonstration page uses our WeatherBlox Daily Observations layout. Learn more.

Left ArrowRight Arrow

39.51506, -84.39828

Hourly Observations for April 18, 2018

Temp ( °F °C ) Dew Point ( °F °C ) Humidity (%) Winds ( mph kmh ) Pressure ( in mb ) Visibility ( mi km ) Precip ( " mm )
12:15 am 00:15 Clear 30 -1.1 28 -2.5 90 90 Calm 29.97 1015 10 16 0.00 0.00
12:35 am 00:35 Clear 29 -1.6 27 -2.9 91 91 Calm 29.97 1015 10 16 0.00 0.00
12:55 am 00:55 Clear 29 -1.6 27 -2.7 92 92 Calm 29.97 1015 10 16 0.00 0.00
1:15 am 01:15 Clear 30 -1.2 28 -2.5 91 91 N 5 7 29.97 1015 10 16 0.00 0.00
1:35 am 01:35 Clear 29 -1.5 27 -2.7 92 92 N 3 6 29.94 1014 10 16 0.00 0.00
1:55 am 01:55 Partly Cloudy 30 -1 28 -2.5 90 90 Calm 29.97 1015 10 16 0.00 0.00
2:15 am 02:15 Cloudy 31 -0.8 28 -2.1 91 91 Calm 29.97 1015 10 16 0.00 0.00
2:35 am 02:35 Cloudy 33 0.3 30 -0.9 92 92 Calm 29.97 1015 10 16 0.00 0.00
2:55 am 02:55 Cloudy 33 0.8 30 -1 88 88 Calm 29.97 1015 10 16 0.00 0.00
3:15 am 03:15 Cloudy 33 0.8 30 -1.3 86 86 Calm 29.97 1015 10 16 0.00 0.00
3:35 am 03:35 Cloudy 33 0.6 30 -1.3 87 87 N 5 7 29.97 1015 10 16 0.00 0.00
3:55 am 03:55 Cloudy 34 0.9 30 -0.9 88 88 N 3 6 29.97 1015 10 16 0.00 0.00
4:15 am 04:15 Cloudy 34 1.3 30 -0.9 85 85 Calm 29.97 1015 10 16 0.00 0.00
4:35 am 04:35 Cloudy 35 1.7 30 -1 82 82 Calm 29.94 1014 10 16 0.00 0.00
4:55 am 04:55 Cloudy 35 1.7 30 -1.2 81 81 ENE 3 6 29.94 1014 10 16 0.00 0.00
5:15 am 05:15 Mostly Cloudy 34 1.3 29 -1.7 81 81 NE 5 7 29.97 1015 10 16 0.00 0.00
5:35 am 05:35 Clear 32 0.2 28 -2.2 84 84 NE 5 7 29.94 1014 10 16 0.00 0.00
5:55 am 05:55 Clear 33 0.4 28 -2 84 84 NNE 3 6 29.94 1014 10 16 0.00 0.00
6:15 am 06:15 Cloudy 33 0.5 29 -1.6 86 86 Calm 29.94 1014 10 16 0.00 0.00
6:35 am 06:35 Cloudy 34 0.9 29 -1.4 85 85 NE 3 6 29.94 1014 10 16 0.00 0.00
6:55 am 06:55 Cloudy 34 1.2 28 -2.1 79 79 ENE 6 9 29.94 1014 10 16 0.00 0.00
7:15 am 07:15 Cloudy 35 1.5 28 -2 78 78 ENE 6 9 29.94 1014 10 16 0.00 0.00
7:35 am 07:35 Cloudy 35 1.7 29 -1.9 77 77 ENE 7 11 29.94 1014 10 16 0.00 0.00
7:55 am 07:55 Cloudy 36 2 29 -1.9 76 76 ENE 7 11 29.94 1014 10 16 0.00 0.00
8:15 am 08:15 Cloudy 36 2.3 29 -1.8 75 75 NE 6 9 29.94 1014 10 16 0.00 0.00
8:35 am 08:35 Cloudy 37 2.5 29 -1.8 74 74 ENE 5 7 29.94 1014 10 16 0.00 0.00
8:55 am 08:55 Cloudy 37 3 29 -1.8 71 71 ENE 5 7 29.91 1013 10 16 0.00 0.00
9:15 am 09:15 Sunny 39 3.9 29 -1.8 67 67 E 5 7 29.91 1013 10 16 0.00 0.00
9:35 am 09:35 Cloudy 40 4.2 28 -2.1 64 64 E 5 7 29.91 1013 10 16 0.00 0.00
9:55 am 09:55 Sunny 42 5.5 29 -1.4 61 61 E 8 13 29.88 1012 10 16 0.00 0.00
10:15 am 10:15 Sunny 43 5.9 30 -1.1 61 61 E 8 13 29.85 1011 10 16 0.00 0.00
10:35 am 10:35 Sunny 44 6.6 31 -0.8 60 60 ESE 8 13 29.85 1011 10 16 0.00 0.00
10:55 am 10:55 Sunny 46 7.5 32 -0.2 58 58 ESE 8 13 29.85 1011 10 16 0.00 0.00
11:15 am 11:15 Sunny 47 8.1 33 0.3 58 58 SE 6 9 29.85 1011 10 16 0.00 0.00
11:35 am 11:35 Sunny 48 8.9 34 0.9 58 58 SE 9 15 29.83 1010 10 16 0.00 0.00
11:55 am 11:55 Sunny 49 9.5 34 1.1 56 56 SSE 6 9 29.83 1010 10 16 0.00 0.00
12:15 pm 12:15 Sunny 51 10.5 34 1.3 53 53 ESE 9 15 29.80 1009 10 16 0.00 0.00
12:35 pm 12:35 Sunny 52 11.3 35 1.5 51 51 ESE 5 7 29.80 1009 10 16 0.00 0.00
12:55 pm 12:55 Sunny 53 11.7 35 1.8 51 51 E 7 11 29.80 1009 10 16 0.00 0.00
1:15 pm 13:15 Sunny 56 13.1 37 3 51 51 SSE 6 9 29.80 1009 10 16 0.00 0.00
1:35 pm 13:35 Sunny 56 13.1 37 2.9 50 50 SE 5 7 29.74 1007 10 16 0.00 0.00
1:55 pm 13:55 Sunny 57 13.8 39 3.7 51 51 ESE 3 6 29.74 1007 10 16 0.00 0.00
2:15 pm 14:15 Sunny 58 14.2 39 3.7 49 49 SE 7 11 29.74 1007 10 16 0.00 0.00
2:35 pm 14:35 Sunny 59 15.1 41 4.8 50 50 SSE 8 13 29.71 1006 10 16 0.00 0.00
2:55 pm 14:55 Sunny 60 15.8 41 4.9 49 49 SE 9 15 29.71 1006 10 16 0.00 0.00
3:15 pm 15:15 Sunny 62 16.8 42 5.7 48 48 SSE 8 13 29.71 1006 10 16 0.00 0.00
3:35 pm 15:35 Sunny 64 17.5 43 5.9 47 47 S 8 13 29.68 1005 10 16 0.00 0.00
3:55 pm 15:55 Sunny 65 18.6 45 7.2 48 48 SW 10 17 29.68 1005 10 16 0.00 0.00
4:15 pm 16:15 Mostly Cloudy 65 18.3 44 6.6 47 47 SW 10 17 29.68 1005 10 16 0.00 0.00
4:35 pm 16:35 Cloudy 64 17.9 44 6.9 49 49 SW 6 9 29.68 1005 10 16 0.00 0.00
4:55 pm 16:55 Cloudy 64 17.9 44 6.8 48 48 Calm 29.68 1005 10 16 0.00 0.00
5:15 pm 17:15 Cloudy 64 17.7 46 7.6 52 52 NNE 3 6 29.68 1005 10 16 0.00 0.00
5:35 pm 17:35 Cloudy 64 17.9 46 7.6 51 51 NNE 5 7 29.65 1004 10 16 0.00 0.00
5:55 pm 17:55 Mostly Cloudy 65 18.4 46 7.7 50 50 NE 8 13 29.65 1004 10 16 0.00 0.00
6:15 pm 18:15 Cloudy 64 17.7 46 8 53 53 NE 7 11 29.65 1004 10 16 0.00 0.00
6:35 pm 18:35 Cloudy 63 17.3 46 8 55 55 ENE 7 11 29.62 1003 10 16 0.00 0.00
6:55 pm 18:55 Mostly Cloudy 63 17 47 8.1 56 56 NNE 5 7 29.62 1003 10 16 0.00 0.00
7:15 pm 19:15 Cloudy 62 16.6 46 7.9 57 57 NE 6 9 29.62 1003 10 16 0.00 0.00
7:35 pm 19:35 Cloudy 61 16.3 46 7.8 57 57 NNE 7 11 29.62 1003 10 16 0.00 0.00
7:55 pm 19:55 Cloudy with Light Rain 56 13.3 50 10.1 81 81 N 7 11 29.65 1004 7 11 0.10 2.54
8:15 pm 20:15 Cloudy with Nearby Thunderstorms 55 12.8 51 10.4 85 85 NNE 5 7 29.65 1004 10 16 0.00 0.00
8:35 pm 20:35 Cloudy with Light Rain 54 12.2 51 10.6 90 90 N 7 11 29.71 1006 7 11 0.04 1.02
8:55 pm 20:55 Cloudy with Light Rain 54 12.2 50 10.1 87 87 NNW 7 11 29.74 1007 10 16 0.04 1.02
9:15 pm 21:15 Cloudy with Light Rain 54 12 50 10 88 88 N 6 9 29.74 1007 10 16 0.00 0.00
9:35 pm 21:35 Cloudy 53 11.6 50 10.1 91 91 W 5 7 29.80 1009 10 16 0.00 0.00
9:55 pm 21:55 Cloudy 54 12 48 9.1 83 83 WNW 8 13 29.80 1009 10 16 0.00 0.00
10:15 pm 22:15 Cloudy 53 11.8 44 6.6 71 71 W 10 17 29.80 1009 10 16 0.00 0.00
10:35 pm 22:35 Cloudy 52 11.2 42 5.8 70 70 W 10 17 29.83 1010 10 16 0.00 0.00
10:55 pm 22:55 Partly Cloudy 51 10.5 40 4.4 66 66 WNW 18 30 29.83 1010 10 16 0.00 0.00
11:15 pm 23:15 Clear 48 9.1 38 3.1 66 66 WNW 18 30 29.85 1011 10 16 0.00 0.00
11:35 pm 23:35 Partly Cloudy 47 8.4 37 2.6 67 67 W 15 24 29.85 1011 10 16 0.00 0.00
11:55 pm 23:55 Cloudy 47 8.2 37 3 70 70 W 13 20 29.85 1011 10 16 0.00 0.00

Powered by AerisWeather